SL-12 DEB, 43334

Orbit data source: Space-Track

SL-12 DEB, 43334 is space debris in LEO originally from a launch on Tue, 10 Jan 1989 UTC launched from the Tyuratam Missile And Space Complex (TTMTR). Debris objects in space refer to the collection of defunct objects orbiting the Earth. Examples of debris include non-operational satellites, rocket bodies, and fragments generated from explosions, collisions, or faulty payload assembly.

Loading next visibility...
Identifier
43334, 1989-001Y
Orbit
LEO
Country
Flag of CISCIS
Related business
Manufacturer
Unknown
Mission
Spacecraft
Bus & Motor
Unknown
Mass
Unknown
Launch date (UTC)
1989-01-10 (37 years ago)
Launch vehicle
Unknown
Launch site
Tyuratam Missile And Space Complex (TTMTR)
Object type
Payload
Rocket body
Debris
Shape & HBR
Unknown shape, 0.1 m
Radar Cross Section
Medium (>0.1 m² and <1 m²)

Expand to show TLE details & history
Last TLE update: 22 hours ago

TLE from 22 hours ago
0 SL-12 DEB
1 43334U 89001Y   26073.69021302 -.00002263  00000-0 -22946-1 0  9995
2 43334  64.6684 298.0036 1888319   4.1678 357.2682  9.86641779151798
Epoch: 2026-03-14T16:33Z
TLE epoch observation values (Epoch: 2026-03-14T16:33:54.404Z)
Latitude
-0.00007°
Longitude
-122.78089°
Altitude
1,074.881 km
Speed
7.974 km/s
True Right ascension
19h 52m 00s
True Declination
0° 00' 00"
Sunlit
Object was in daylight at epoch
Visualization orbit readout
Latitude
Unknown
Longitude
Unknown
Altitude
Unknown
Speed
Unknown
Apparent Right ascension
Unknown
Apparent Declination
Unknown
Sunlit
N/A
Visualization observer readout
Local Sidereal Time
18:58:25
Azimuth
Unknown
Elevation
Unknown
Doppler factor
Unknown
Orbital elements
Apogee altitude
4,536.993 km
Perigee altitude
1,069.514 km
Semi-major axis
9,181.39 km
Eccentricity
0.18883
Inclination
64.6684°
RAAN
298.0036°
Arg. of periapsis
4.1678°
True anomaly
355.92407°
Mean anomaly
357.2682°
Eccentric anomaly
356.63272°
Mean motion
2.46706 °/min
Orbital period
145.92 mins
BSTAR
-0.022946
Loading maneuver chart data...
Computing Atmospheric mass density...
Loading historical data...
Loading historical data...
Loading historical data...
Loading historical data...
Loading historical data...
Loading historical data...
Loading historical data...

Documentation

Showing up to 5 results
|